OPS 4682 DEB, 38376

Orbit data source: Space-Track

OPS 4682 DEB, 38376 is space debris in LEO originally from a launch on Sat, 03 Apr 1965 UTC launched from the Air Force Western Test Range (AFWTR). Debris objects in space refer to the collection of defunct objects orbiting the Earth. Examples of debris include non-operational satellites, rocket bodies, and fragments generated from explosions, collisions, or faulty payload assembly.

Loading next visibility...
Identifier
38376, 1965-027CD
Orbit
LEO
Country
Flag of USUS
Related business
Manufacturer
Unknown
Mission
Spacecraft
Bus & Motor
Unknown
Mass
Unknown
Launch date (UTC)
1965-04-03 (61 years ago)
Launch vehicle
Unknown
Launch site
Air Force Western Test Range (AFWTR)
Object type
Payload
Rocket body
Debris
Shape & HBR
Unknown shape, 0.1 m
Radar Cross Section
Medium (>0.1 m² and <1 m²)

Expand to show TLE details & history
Last TLE update: 2 days ago

TLE from 2 days ago
0 OPS 4682 DEB
1 38376U 65027CD  26149.06285978  .00000447  00000-0  15473-2 0  9991
2 38376  90.2431  10.3524 0028236 190.5480 169.5051 12.95846567659315
Epoch: 2026-05-29T01:30Z
TLE epoch observation values (Epoch: 2026-05-29T01:30:31.084Z)
Latitude
0.00002°
Longitude
101.12425°
Altitude
1,302.544 km
Speed
7.195 km/s
True Right ascension
00h 41m 24s
True Declination
0° 00' 00"
Sunlit
Object was in daylight at epoch
Visualization orbit readout
Latitude
Unknown
Longitude
Unknown
Altitude
Unknown
Speed
Unknown
Apparent Right ascension
Unknown
Apparent Declination
Unknown
Sunlit
N/A
Visualization observer readout
Local Sidereal Time
16:15:14
Azimuth
Unknown
Elevation
Unknown
Doppler factor
Unknown
Orbital elements
Apogee altitude
1,297.148 km
Perigee altitude
1,253.926 km
Semi-major axis
7,653.674 km
Eccentricity
0.00282
Inclination
90.2431°
RAAN
10.3524°
Arg. of periapsis
190.548°
True anomaly
169.56383°
Mean anomaly
169.5051°
Eccentric anomaly
169.53449°
Mean motion
3.24144 °/min
Orbital period
111.06 mins
BSTAR
0.0015473
Loading maneuver chart data...
Computing Atmospheric mass density...
Loading historical data...
Loading historical data...
Loading historical data...
Loading historical data...
Loading historical data...
Loading historical data...
Loading historical data...

Documentation

Showing up to 5 results
|